Farmingdale, NY

9:55 PM EDT on April 26, 2017 (GMT -0400)
Republic

Weather History for KFRG - November, 2012

Change the Weather History Date:

Sunday, November 4, 2012

  Actual Average Record
Temperature  
Mean Temperature 44 °F -  
Max Temperature 52 °F 54 °F 66 °F (2015)
Min Temperature 37 °F 39 °F 17 °F (1996)
Degree Days  
Heating Degree Days 21    
Moisture  
Dew Point 31 °F    
Average Humidity 61    
Maximum Humidity 76    
Minimum Humidity 48    
Precipitation  
Precipitation 0.00 in - - ()
Sea Level Pressure  
Sea Level Pressure 29.95 in    
Wind  
Wind Speed 8 mph (NW)    
Max Wind Speed 13 mph    
Max Gust Speed 16 mph    
Visibility 10 miles    
Events      
Averages and records for this station are not official NWS values.
T = Trace of Precipitation, MM = Missing Value Source: NWS Daily Summary

Daily Weather History Graph

Daily Weather History Graph

Search for Another Location

Airport or City:

Trip Planner

Search our weather history database for the weather conditions in past years. The results will help you decide how hot, cold, wet, or windy it might be!

Date:

Astronomy

Nov. 04, 2012 Rise Set
Actual Time 6:28 AM EST 4:45 PM EST
Civil Twilight 5:59 AM EST 5:14 PM EST
Nautical Twilight 5:26 AM EST 5:46 PM EST
Astronomical Twilight 4:54 AM EST 6:18 PM EST
Moon 9:21 PM EST (11/4) 11:10 AM EST (11/4)
Length of Visible Light 11h 15m
Length of Day
10h 17m
Waning Gibbous, 72% of the Moon is Illuminated
Nov 4
Waning Gibbous
Nov 6
Last Quarter
Nov 13
New
Nov 20
First Quarter
Nov 28
Full

Hourly Weather History & Observations

Time (EST) Temp. Windchill Dew Point Humidity Pressure Visibility Wind Dir Wind Speed Gust Speed Precip Events Conditions
12:53 AM 39.9 °F 34.5 °F 30.0 °F 68% 29.94 in 10.0 mi WNW 8.1 mph - N/A   Clear
1:53 AM 39.9 °F 34.5 °F 30.0 °F 68% 29.94 in 10.0 mi WNW 8.1 mph - N/A   Clear
1:53 AM 39.9 °F 35.8 °F 30.0 °F 68% 29.94 in 10.0 mi WNW 5.8 mph - N/A   Clear
2:53 AM 39.0 °F 33.4 °F 30.0 °F 70% 29.93 in 10.0 mi WNW 8.1 mph - N/A   Clear
3:53 AM 39.0 °F 34.8 °F 30.9 °F 73% 29.94 in 10.0 mi WNW 5.8 mph - N/A   Clear
4:53 AM 37.9 °F 33.5 °F 30.9 °F 76% 29.95 in 10.0 mi WNW 5.8 mph - N/A   Clear
5:53 AM 37.9 °F 33.5 °F 30.9 °F 76% 29.96 in 10.0 mi WNW 5.8 mph - N/A   Clear
6:53 AM 37.9 °F 34.4 °F 30.9 °F 76% 29.96 in 10.0 mi WNW 4.6 mph - N/A   Clear
7:53 AM 41.0 °F 36.4 °F 32.0 °F 70% 29.97 in 10.0 mi WNW 6.9 mph - N/A   Clear
8:53 AM 44.1 °F 39.5 °F 30.9 °F 60% 29.98 in 10.0 mi NW 8.1 mph - N/A   Clear
9:53 AM 46.0 °F 41.9 °F 30.9 °F 56% 29.97 in 10.0 mi NNW 8.1 mph - N/A   Clear
10:53 AM 48.0 °F - 32.0 °F 54% 29.96 in 10.0 mi North 8.1 mph - N/A   Clear
11:53 AM 50.0 °F - 32.0 °F 50% 29.94 in 10.0 mi NNW 9.2 mph - N/A   Clear
12:53 PM 51.1 °F - 32.0 °F 48% 29.93 in 10.0 mi Variable 5.8 mph - N/A   Clear
1:53 PM 51.1 °F - 32.0 °F 48% 29.91 in 10.0 mi WNW 10.4 mph 16.1 mph N/A   Clear
2:53 PM 50.0 °F - 32.0 °F 50% 29.92 in 10.0 mi West 9.2 mph - N/A   Mostly Cloudy
3:53 PM 50.0 °F - 30.9 °F 48% 29.92 in 10.0 mi WNW 6.9 mph - N/A   Overcast
4:53 PM 48.9 °F - 32.0 °F 52% 29.92 in 10.0 mi WNW 8.1 mph - N/A   Overcast
5:53 PM 46.9 °F - 30.9 °F 54% 29.94 in 10.0 mi WNW 6.9 mph - N/A   Overcast
6:53 PM 46.0 °F 42.5 °F 30.9 °F 56% 29.96 in 10.0 mi NW 6.9 mph - N/A   Overcast
7:53 PM 45.0 °F 39.3 °F 32.0 °F 60% 29.96 in 10.0 mi NNE 11.5 mph - N/A   Overcast
8:53 PM 44.1 °F 38.6 °F 30.0 °F 58% 29.98 in 10.0 mi North 10.4 mph - N/A   Overcast
9:53 PM 43.0 °F 37.2 °F 28.9 °F 58% 29.98 in 10.0 mi North 10.4 mph - N/A   Overcast
10:53 PM 43.0 °F 36.4 °F 28.9 °F 58% 29.97 in 10.0 mi North 12.7 mph - N/A   Overcast